Location: Turtle Rock Observatory
(36.6913°N, 81.9708°W)
Time: 06:35:35
(UTC-04:00)

Daily predictions for brighter satellites

Satellite Brightness Start Highest point End
(mag) Time Altitude Azimuth Time Altitude Azimuth Time Altitude Azimuth
Cosmos 1340 Rocket 2.9 21:16:00 10° S 21:20:02 89° E 21:24:06 10° N
NOSS 3-4 (A) 4.1 21:13:00 10° NW 21:20:07 73° WSW 21:27:40 10° SSE
NOSS 3-4 (C) 4.1 21:13:05 10° NW 21:20:13 74° WSW 21:27:46 10° SSE
Milstar 3 Cent rocket 3.7 21:15:21 10° WSW 21:20:53 39° S 21:30:47 10° ESE
SL-16 R/B 2.2 21:19:22 10° NNW 21:25:04 77° ENE 21:30:42 10° SSE
Resurs 01 Rocket 2.6 21:20:54 10° S 21:25:09 49° W 21:29:27 10° NNW
Meteor 2-15 Rocket 4.5 21:19:35 10° S 21:25:39 87° E 21:31:45 10° N
CZ-2D R/B 4.4 21:22:12 10° S 21:25:51 43° W 21:29:32 10° NNW
Resurs 1-3 4.4 21:22:00 10° S 21:26:16 54° W 21:30:35 10° NNW
Cosmos 1939 Rocket 3.0 21:23:29 10° SSE 21:27:25 57° ENE 21:31:25 10° N
Cosmos 1908 4.0 21:25:18 10° NNE 21:28:53 35° E 21:32:24 10° SE
CZ-3B R/B 3.3 21:32:08 10° SSW 21:34:34 61° SE 21:41:15 10° NE
Cosmos 1741 Rocket 4.3 21:29:35 10° SSW 21:34:54 74° WNW 21:40:13 10° NNE
Spot 2 Rocket 4.4 21:30:55 10° S 21:35:46 49° W 21:40:42 10° NNW
USA 186 3.1 21:36:00 10° SSW 21:37:58 25° W 21:39:53 10° NW
Cosmos 2100 Rocket 4.2 21:34:08 10° N 21:40:20 56° E 21:46:34 10° SSE
H-2A R/B 4.0 21:37:27 10° E 21:40:33 16° ENE 21:43:40 10° NNE
Cosmos 1076 Rocket 3.5 21:37:06 10° S 21:41:24 64° E 21:45:43 10° NNE
SL-19 R/B 4.4 21:36:14 10° SSE 21:41:55 80° WSW 21:47:30 10° NNW
GPS 2-05 Rocket1 2.9 21:39:16 10° WSW 21:42:12 41° SSE 21:45:06 10° E
ERBS 4.5 21:40:01 10° N 21:42:20 17° NE 21:44:39 10° E
Cosmos 2173 Rocket 4.2 21:40:49 10° N 21:46:54 57° E 21:53:02 10° SSE
Lacrosse 5 2.6 21:42:52 10° NNW 21:47:41 42° NE 21:51:53 13° ESE
Cosmos 1818 3.7 21:42:57 10° NNW 21:48:23 73° WSW 21:53:39 11° SSE
SPOT 5 4.3 21:44:58 12° ESE 21:48:24 24° ENE 21:52:25 10° NNE
Atlas Centaur 2 3.0 21:49:52 10° WSW 21:52:23 17° SSW 21:54:14 12° SSE
Cosmos 2061 Rocket 4.2 21:47:21 10° N 21:53:42 60° E 21:59:51 11° SSE
Cosmos 1408 Rocket 3.7 21:49:51 10° S 21:54:01 53° E 21:58:14 10° NNE
Abrixas rocket 4.2 21:51:49 10° NNW 21:54:27 22° NNE 21:57:05 10° ENE
YAOGAN 6 2.6 21:52:08 11° SSE 21:55:38 84° ENE 21:59:20 10° N
Cosmos 2221 2.9 21:56:02 10° NNW 22:00:24 64° W 22:04:44 10° S
Cosmos 2227 4.2 21:54:43 10° SSW 22:00:27 89° WNW 22:06:12 10° NNE
Envisat 3.9 21:55:43 10° S 22:00:36 48° W 22:05:30 10° NNW
Cosmos 1626 4.4 22:03:26 11° E 22:03:26 11° E 22:04:13 10° ENE
Meteor 1-29 3.9 22:03:44 10° N 22:07:05 50° WNW 22:10:26 10° SSW
Cosmos 1726 2.6 22:05:35 10° N 22:09:04 41° E 22:10:46 24° SE
Cosmos 1725 Rocket 4.4 22:06:15 10° N 22:12:12 45° ENE 22:16:09 20° SE
Terra 3.9 22:11:39 11° E 22:13:36 14° ENE 22:15:54 10° NE
Cosmos 1763 Rocket 4.3 22:09:10 10° N 22:13:48 35° ENE 22:16:28 21° ESE
Cosmos 1500 Rocket 4.5 22:13:37 23° SE 22:15:25 31° E 22:19:21 10° NNE
Cosmos 2263 Rocket 2.6 22:11:05 12° S 22:15:45 40° ESE 22:20:56 10° NE
Cosmos 1486 Rocket 4.2 22:11:02 10° S 22:16:07 52° ESE 22:21:15 10° NNE
Tiangong 1 2.8 22:14:01 10° NW 22:16:25 25° N 22:18:28 12° ENE
Cosmos 332 Rocket 4.0 22:11:58 10° N 22:16:50 58° ENE 22:19:41 24° SE
Cosmos 1802 Rocket 3.9 22:11:11 10° N 22:17:22 87° E 22:22:47 14° S
OAO 1 Rocket 4.4 22:13:19 10° W 22:18:42 75° S 22:22:43 18° E
Helios 1B rocket 4.3 22:16:41 10° N 22:20:22 32° WNW 22:24:02 10° SW
Abrixas 2.8 22:17:47 10° WSW 22:20:27 57° NNW 22:23:07 10° NE
Cosmos 1300 2.9 22:21:09 10° N 22:24:54 51° E 22:26:18 33° SE
Cosmos 1766 Rocket 4.5 22:29:14 10° SSW 22:33:23 47° W 22:37:35 10° N
SPOT 1/Viking Rocket 3.9 22:33:04 28° SE 22:35:27 50° ENE 22:40:25 10° N
USA 234 3.2 22:29:22 10° NE 22:35:51 64° SE 22:42:19 10° SSW
Cosmos 1328 Rocket 3.4 22:33:59 10° N 22:38:19 76° E 22:40:04 35° SSE
Cosmos 2016 Rocket 4.1 22:32:09 10° N 22:38:22 76° W 22:43:03 18° S
Cosmos 1151 Rocket 3.7 22:34:20 10° N 22:38:27 39° E 22:39:31 33° ESE
SL-14 R/B 3.3 22:36:05 22° S 22:38:32 82° W 22:42:29 10° N
MetOp-A 4.3 22:39:46 21° S 22:43:19 69° WSW 22:48:39 10° NNW
CZ-4C R/B 3.4 22:46:15 21° E 22:46:15 21° E 22:49:31 10° ENE
ERS-1 Rocket 3.7 22:41:50 17° S 22:45:29 49° W 22:50:23 10° NNW
Cosmos 1515 Rocket 3.5 22:42:24 10° N 22:46:44 66° E 22:48:00 43° SSE
Cosmos 468 Rocket 4.4 22:42:51 10° NNW 22:47:52 56° WSW 22:50:42 25° S
H-2A R/B 3.6 22:47:34 20° E 22:48:11 20° ENE 22:51:19 10° NNE
Delta 2 Rocket 4.0 22:42:32 10° WSW 22:48:14 76° S 22:52:25 19° E
Cosmos 1743 Rocket 3.6 22:46:32 24° SSW 22:49:06 74° W 22:53:26 10° N
EO 1 Delta rocket 3.7 22:47:12 36° SSE 22:49:07 77° ENE 22:53:45 10° N
USA 245 3.2 22:48:40 46° S 22:49:39 77° WSW 22:53:56 10° NNW
ARGOS 3.2 22:46:39 27° S 22:49:42 79° WSW 22:55:08 10° NNW
Cosmos 2058 3.0 22:50:47 47° SE 22:51:38 59° E 22:55:48 10° NNE
Cosmos 1328 4.4 22:49:33 21° SSW 22:52:05 56° W 22:56:04 10° N
Cosmos 1603 4.1 22:47:09 10° NNW 22:52:39 56° WSW 22:55:40 26° S
RESURS DK-1 3.2 22:49:09 10° NW 22:53:06 42° WSW 22:54:38 29° SSW
Cosmos 1455 3.6 22:54:21 10° NNE 22:57:20 25° ENE 22:57:20 25° ENE
YAOGAN 11 4.4 22:55:56 34° S 22:57:47 65° WSW 23:02:20 10° NNW
Cosmos 2233 Rocket 3.9 22:55:29 10° N 23:01:40 70° E 23:04:08 38° SSE
Cosmos 1503 Rocket 3.9 23:00:29 35° S 23:02:37 72° ESE 23:07:46 10° NNE
Nimbus 7 Rocket 4.5 22:58:29 10° NNE 23:04:30 81° WNW 23:08:52 19° SSW
Cosmos 2228 Rocket 3.6 23:01:00 10° NNW 23:05:31 57° W 23:07:16 34° SSW
Cosmos 371 Rocket 3.7 23:00:57 10° NNW 23:05:40 55° WSW 23:07:24 35° SSW
Cosmos 1943 3.1 23:00:01 10° NNW 23:05:41 90° ENE 23:07:41 43° SSE
Cosmos 540 Rocket 4.1 23:02:36 10° N 23:07:25 39° ENE 23:08:29 35° E
ERBS 3.5 23:15:56 10° NW 23:18:29 35° W 23:18:29 35° W
H-2A R/B 2.4 23:17:23 38° SSW 23:19:20 64° W 23:24:44 10° NNW
SPOT 5 4.1 23:24:13 25° SW 23:26:12 35° W 23:30:51 10° NNW
Sich 1 4.1 23:28:52 33° ENE 23:28:52 33° ENE 23:31:51 10° NNE
H-2A ROCKET BODY 3.2 23:24:16 10° SW 23:28:38 46° SSE 23:46:24 10° E
Cosmos 2151 4.1 23:27:50 29° SW 23:29:23 40° W 23:33:28 10° N
Lacrosse 5 3.1 23:26:11 10° WNW 23:30:27 28° WSW 23:31:05 27° SW
Abrixas rocket 4.0 23:28:11 10° WNW 23:29:56 27° WNW 23:29:56 27° WNW
Landsat 7 4.1 23:35:07 51° SW 23:35:52 58° W 23:40:35 10° NNW
Cosmos 1626 3.3 23:38:04 36° W 23:38:18 37° W 23:41:48 10° N
Cosmos 1703 4.3 23:39:14 38° W 23:39:44 40° W 23:43:31 10° N
SL-19 R/B 4.2 23:37:48 10° NNE 23:43:15 85° WNW 23:44:40 53° SSW
Cosmos 1707 Rocket 3.9 23:44:21 10° N 23:48:18 60° NE 23:48:18 60° NE
Cosmos 2278 Rocket 4.1 23:51:08 16° ENE 23:51:08 16° ENE 23:53:11 10° ENE
deb Chang Zheng 4 3.6 23:45:02 10° N 23:49:17 77° NW 23:49:17 77° NW
Terra 2.0 23:50:32 58° WSW 23:50:48 59° W 23:55:30 10° NNW
Tiangong 1 4.1 23:49:26 10° WNW 23:49:35 11° WNW 23:49:35 11° WNW
